Orbital Elements at Epoch 2459200.5 (2020-Dec-17.0) TDB
Reference: JPL 38 (heliocentric ecliptic J2000)
Element | Value | Uncertainty (1-sigma) | Units |
e | .08717599832885622 | 3.3577e-08 | |
a | 3.04562638662042 | 1.6576e-08 | au |
q | 2.780120865830078 | 1.0449e-07 | au |
i | 8.103715589038996 | 4.2046e-06 | deg |
node | 326.505975757516 | 2.5609e-05 | deg |
peri | 266.7185000973207 | 3.4697e-05 | deg |
M | 296.7977525063612 | 2.3486e-05 | deg |
tp | 2459541.334374007376 (2021-Nov-22.83437401) | 0.00012685 | TDB |
period | 1941.392585050159 5.32 | 1.5849e-05 4.339e-08 | d yr |
n | .1854339007845231 | 1.5138e-09 | deg/d |
Q | 3.311131907410762 | 1.8021e-08 | au |
|
| | Orbit Determination Parameters
Additional Information
|